Location: Martz Observatory
(42.0083°N, 79.0667°W)
Time: 12:26:23
(UTC-05:00)

Daily predictions for brighter satellites

Satellite Brightness Start Highest point End
(mag) Time Altitude Azimuth Time Altitude Azimuth Time Altitude Azimuth
Cosmos 1980 4.0 17:42:12 10° SSW 17:47:52 74° WNW 17:53:34 10° NNE
AQUARIUS 4.3 17:45:19 10° SSE 17:49:49 86° WSW 17:54:21 10° NNW
Lacrosse 4 Rocket 2.7 17:47:15 10° N 17:50:17 20° NE 17:53:18 10° E
Cosmos 1626 3.2 17:51:20 10° SE 17:54:26 25° E 17:57:33 10° NE
USA 229 DEB 4.4 17:51:36 10° S 17:57:34 33° ESE 18:03:37 10° NE
USA 229 4.5 17:51:43 10° S 17:57:41 33° ESE 18:03:42 10° NE
Cosmos 1151 Rocket 3.4 17:54:55 10° NNW 17:59:11 70° W 18:03:27 10° S
Resurs 01 Rocket 3.5 18:00:14 10° E 18:01:46 12° ENE 18:03:17 10° NE
Cosmos 2219 Rocket 3.6 17:57:56 10° SW 18:03:08 38° WNW 18:08:21 10° N
Cosmos 2058 2.8 18:00:57 10° S 18:05:02 84° E 18:09:10 10° N
Meteor 1-11 4.3 18:00:22 10° S 18:06:04 83° E 18:11:52 10° NNE
Cosmos 1184 Rocket 4.0 18:03:35 10° SSE 18:06:17 23° E 18:09:00 10° NE
CZ-4C R/B 4.5 18:04:07 10° N 18:07:11 13° NNE 18:10:23 10° NE
Cosmos 1726 3.2 18:03:55 10° NNW 18:07:35 51° W 18:11:15 10° S
Cosmos 2279 Rocket 4.0 18:01:36 10° N 18:07:51 78° E 18:14:05 10° SSE
MONITOR-E 4.1 18:06:09 10° SSE 18:09:18 77° ENE 18:12:29 10° N
Iridium 4 Rocket 4.4 18:07:39 10° SE 18:10:41 19° E 18:13:38 10° NE
Cosmos 2333 Rocket 3.5 18:08:44 10° SW 18:13:59 39° WNW 18:19:18 10° N
Cosmos 1461 3.0 18:10:43 10° SW 18:14:54 78° NW 18:18:59 10° NNE
Cosmos 304 Rocket 3.8 18:10:35 10° SSW 18:15:24 89° WNW 18:20:14 10° NNE
Lacrosse 5 rocket 3.4 18:12:31 10° WNW 18:15:49 28° SW 18:19:17 10° S
Aureole 1 Rocket 4.4 18:10:56 10° SSE 18:16:07 41° E 18:22:45 10° NNE
FREGAT/IRIS 4.1 18:14:14 10° ESE 18:16:27 19° ENE 18:18:41 10° NNE
Cosmos 2278 Rocket 3.7 18:13:39 10° NW 18:18:57 41° WSW 18:24:12 10° S
Cosmos 1242 Rocket 3.9 18:16:43 10° NNE 18:19:13 18° ENE 18:21:43 10° ESE
Cosmos 1455 2.5 18:17:13 10° N 18:20:53 42° ENE 18:24:31 10° SSE
Tiangong 1 3.0 18:19:21 10° S 18:21:21 17° SSE 18:22:42 13° ESE
Cosmos 1805 Rocket 3.5 18:17:51 10° S 18:22:18 76° E 18:26:46 10° N
Cosmos 1356 Rocket 3.3 18:20:21 10° S 18:24:15 59° E 18:28:12 10° NNE
SKYMED 2 3.5 18:21:10 10° NNE 18:25:32 80° ESE 18:29:52 10° S
Nadezhda 4 Rocket 4.1 18:21:19 10° SSE 18:27:24 57° E 18:33:35 10° NNE
Cosmos 2242 Rocket 4.0 18:25:32 10° N 18:29:41 38° ENE 18:33:50 10° SE
Thor Agena Rocket 4.4 18:24:38 10° N 18:29:42 52° WNW 18:34:42 10° SW
Cosmos 1538 Rocket 4.0 18:25:48 10° SSW 18:31:06 82° ESE 18:36:29 10° NNE
Sich 1 3.0 18:28:43 10° S 18:33:06 64° E 18:37:29 10° NNE
Cosmos 1703 3.5 18:32:34 10° SSW 18:36:27 70° W 18:40:21 10° N
Coronas F rocket 1.1 18:35:35 10° S 18:37:54 45° E 18:37:55 45° E
Cosmos 923 Rocket 4.3 18:34:05 10° S 18:38:57 43° ESE 18:42:58 15° NE
Cosmos 2237 Rocket 3.9 18:38:05 10° WSW 18:43:00 31° NW 18:47:59 10° N
SOZ 4.2 18:42:05 10° SW 18:44:12 81° SE 18:44:55 42° ENE
SJ-6B 3.0 18:40:19 10° SSE 18:44:18 53° ENE 18:48:22 10° N
Cosmos 1633 Rocket 2.9 18:40:32 10° S 18:44:55 76° E 18:49:19 10° N
Cosmos 1680 Rocket 4.0 18:40:15 10° SSE 18:45:00 37° ESE 18:47:47 22° NE
Cosmos 2369 Rocket 3.1 18:41:07 10° N 18:45:52 27° NE 18:47:04 25° ENE
NOSS 3-1 (C) 4.3 18:44:03 10° SSE 18:48:45 26° ESE 18:50:00 25° E
Cosmos 1092 Rocket 4.0 18:44:34 10° S 18:50:47 62° E 18:57:03 10° NNE
SL-16 R/B 2.8 18:46:25 10° SW 18:51:57 56° WNW 18:57:32 10° NNE
Orbus 7S? 4.4 18:50:08 10° NW 18:54:20 64° NE 19:04:22 10° SE
Lacrosse 5 3.6 18:52:06 10° NNW 18:55:19 17° NNE 18:56:21 16° NNE
ATLAS 3B R/B 4.4 18:55:06 10° NNW 18:58:37 14° NNE 19:00:18 13° NNE
USA 215 3.3 18:56:43 22° ESE 19:01:00 61° NE 19:07:26 10° NW
ALOS 2.4 18:57:36 10° SSE 19:02:06 50° ENE 19:06:37 10° N
Cosmos 773 Rocket 4.1 18:57:17 10° SSW 19:02:27 79° WNW 19:07:41 10° NNE
Meteor 1-28 Rocket 4.2 19:01:24 10° N 19:04:58 45° WNW 19:08:32 10° SSW
Abrixas 4.3 19:04:21 10° WNW 19:06:25 22° NNW 19:06:25 22° NNW
Cosmos 1862 Rocket 3.5 19:04:22 10° N 19:08:41 56° E 19:12:57 10° SSE
METEOR-M 4.3 19:04:22 10° S 19:09:43 74° WSW 19:15:06 10° NNW
Cosmos 2084 Rocket 4.3 19:06:50 10° NNW 19:09:20 30° N 19:09:20 30° N
FENGYUN 3A 3.6 19:06:33 10° SSE 19:11:50 62° ENE 19:17:09 10° N
Cosmos 292 Rocket 3.6 19:07:25 10° SSW 19:12:09 79° ESE 19:14:25 31° NNE
Cosmos 2195 Rocket 4.4 19:07:01 10° S 19:12:59 60° E 19:19:03 10° NNE
COSMO-SKYMED 1 4.4 19:09:36 10° N 19:13:26 31° WNW 19:17:15 10° SW
Cosmos 2112 Rocket 3.9 19:16:35 10° S 19:21:45 69° ESE 19:23:17 45° NE
Cosmos 1869 4.2 19:20:10 10° NNW 19:24:07 51° W 19:28:01 10° S
Cosmos 1943 3.3 19:23:25 10° S 19:28:35 50° ESE 19:28:35 50° ESE
Lacrosse 4 Rocket 2.6 19:25:21 10° NW 19:29:09 40° WSW 19:32:57 10° S
ATLAS 5 CENTAUR R/B 3.4 19:25:20 10° NNW 19:29:29 29° NNE 19:29:29 29° NNE
Cosmos 1933 Rocket 3.8 19:29:05 10° SSW 19:33:30 71° W 19:35:24 34° N
Resurs 1-3 4.5 19:36:48 39° N 19:36:48 39° N 19:39:35 10° NNW
Resurs 01 Rocket 1.7 19:34:52 23° S 19:37:37 77° WSW 19:42:04 10° NNW
Cosmos 1417 Rocket 4.3 19:32:49 10° N 19:39:00 68° E 19:41:58 32° SSE
H-2A ROCKET BODY 3.9 19:25:46 10° WSW 19:42:30 33° SSW 19:45:25 23° SSE
Cosmos 1943 Rocket 3.7 19:42:13 10° N 19:44:33 23° N 19:44:33 23° N
USA 229 DEB 4.3 19:41:32 10° SW 19:48:14 54° NW 19:51:58 27° NNE
USA 229 4.3 19:41:38 10° SW 19:48:19 54° NW 19:52:02 27° NNE
Cosmos 1655 Rocket 3.9 19:45:29 10° S 19:51:52 89° ESE 19:58:15 10° N
Spot 2 Rocket 3.9 19:46:55 10° S 19:51:54 61° WSW 19:56:54 10° NNW
Tiangong 1 4.4 19:54:08 10° WSW 19:54:18 11° WSW 19:54:18 11° WSW
CZ-4C R/B 3.7 19:51:41 10° NNW 19:56:24 31° NNE 19:56:24 31° NNE
NOSS 3-1 (A) 3.9 19:56:01 10° SSW 20:00:05 47° S 20:00:05 47° S
S3M 4.4 20:07:18 10° N 20:12:05 54° NNW 20:12:05 54° NNW
Cosmos 2369 Rocket 3.2 20:24:43 10° NW 20:28:57 42° WNW 20:28:57 42° WNW
NOSS 3-1 (C) 4.4 20:33:22 10° SW 20:37:28 42° W 20:37:28 42° W
Lacrosse 5 4.4 20:34:45 10° NW 20:35:34 14° NNW 20:35:34 14° NNW
USA 215 4.1 20:44:05 42° SW 20:44:08 42° SW 20:50:18 10° WNW
ATLAS 3B R/B 4.5 20:45:14 10° NNW 20:47:34 20° NNW 20:47:34 20° NNW
